Time,TemperatureF,DewpointF,PressureIn,WindDirection,WindDirectionDegrees,WindSpeedMPH,WindSpeedGustMPH,Humidity,HourlyPrecipIn,Conditions,Clouds,dailyrainin,SoftwareType,DateUTC
2013-05-21 00:03:00,66.0,64.0,29.72,SSE,161,0.0,-999.0,92,-99.99,,,-99.99,,2013-05-21 04:03:00,
2013-05-21 00:13:00,66.0,64.0,29.72,SSE,161,0.0,-999.0,92,-99.99,,,-99.99,,2013-05-21 04:13:00,
2013-05-21 00:23:00,66.0,64.0,29.71,SSE,161,1.0,-999.0,92,-99.99,,,-99.99,,2013-05-21 04:23:00,
2013-05-21 00:33:00,66.0,64.0,29.71,SSE,161,0.0,-999.0,92,-99.99,,,-99.99,,2013-05-21 04:33:00,
2013-05-21 00:42:00,66.0,64.0,29.71,SSE,161,0.0,-999.0,92,-99.99,,,-99.99,,2013-05-21 04:42:00,
2013-05-21 00:53:00,66.0,64.0,29.72,SSE,161,0.0,-999.0,92,-99.99,,,-99.99,,2013-05-21 04:53:00,
2013-05-21 01:02:00,65.0,63.0,29.71,SSE,161,0.0,-999.0,93,-99.99,,,-99.99,,2013-05-21 05:02:00,
2013-05-21 01:12:00,65.0,63.0,29.71,SSE,161,0.0,-999.0,93,-99.99,,,-99.99,,2013-05-21 05:12:00,
2013-05-21 01:22:00,65.0,63.0,29.71,SSE,161,0.0,-999.0,93,-99.99,,,-99.99,,2013-05-21 05:22:00,
2013-05-21 01:32:00,65.0,63.0,29.71,SSE,161,1.0,-999.0,94,-99.99,,,-99.99,,2013-05-21 05:32:00,
2013-05-21 01:42:00,65.0,63.0,29.71,SSE,161,0.0,-999.0,93,-99.99,,,-99.99,,2013-05-21 05:42:00,
2013-05-21 01:52:00,65.0,63.0,29.71,SSE,161,0.0,-999.0,93,-99.99,,,-99.99,,2013-05-21 05:52:00,
2013-05-21 02:02:00,65.0,63.0,29.71,SSE,161,0.0,-999.0,93,-99.99,,,-99.99,,2013-05-21 06:02:00,
2013-05-21 02:12:00,65.0,63.0,29.71,SSE,161,0.0,-999.0,93,-99.99,,,-99.99,,2013-05-21 06:12:00,
2013-05-21 02:21:00,65.0,63.0,29.70,SSE,161,0.0,-999.0,93,-99.99,,,-99.99,,2013-05-21 06:21:00,
2013-05-21 02:32:00,66.0,64.0,29.70,SSE,161,1.0,-999.0,93,-99.99,,,-99.99,,2013-05-21 06:32:00,
2013-05-21 02:42:00,66.0,64.0,29.70,SSE,161,1.0,-999.0,93,-99.99,,,-99.99,,2013-05-21 06:42:00,
2013-05-21 02:52:00,66.0,64.0,29.70,SSE,161,0.0,-999.0,93,-99.99,,,-99.99,,2013-05-21 06:52:00,
2013-05-21 03:01:00,66.0,64.0,29.69,SSE,161,0.0,-999.0,93,-99.99,,,-99.99,,2013-05-21 07:01:00,
2013-05-21 03:11:00,66.0,64.0,29.69,SSE,161,0.0,-999.0,93,-99.99,,,-99.99,,2013-05-21 07:11:00,
2013-05-21 03:22:00,67.0,65.0,29.68,South,171,1.0,-999.0,92,-99.99,,,-99.99,,2013-05-21 07:22:00,
2013-05-21 03:31:00,67.0,64.0,29.68,South,178,2.0,-999.0,91,-99.99,,,-99.99,,2013-05-21 07:31:00,
2013-05-21 03:41:00,67.0,64.0,29.68,South,178,2.0,-999.0,91,-99.99,,,-99.99,,2013-05-21 07:41:00,
2013-05-21 03:52:00,67.0,65.0,29.68,SSE,166,2.0,-999.0,92,-99.99,,,-99.99,,2013-05-21 07:52:00,
2013-05-21 04:02:00,67.0,64.0,29.68,SSE,154,0.0,-999.0,91,-99.99,,,-99.99,,2013-05-21 08:02:00,
2013-05-21 04:11:00,67.0,64.0,29.67,SSW,208,1.0,-999.0,91,-99.99,,,-99.99,,2013-05-21 08:11:00,
2013-05-21 04:21:00,67.0,64.0,29.67,SSW,208,1.0,-999.0,91,-99.99,,,-99.99,,2013-05-21 08:21:00,
2013-05-21 04:31:00,68.0,65.0,29.67,SSE,153,2.0,-999.0,91,-99.99,,,-99.99,,2013-05-21 08:31:00,
2013-05-21 04:41:00,68.0,65.0,29.67,South,181,4.0,-999.0,90,-99.99,,,-99.99,,2013-05-21 08:41:00,
2013-05-21 04:52:00,68.0,65.0,29.67,South,181,4.0,-999.0,90,-99.99,,,-99.99,,2013-05-21 08:52:00,
2013-05-21 05:01:00,68.0,65.0,29.66,SSW,199,4.0,-999.0,90,-99.99,,,-99.99,,2013-05-21 09:01:00,
2013-05-21 05:11:00,68.0,65.0,29.66,SSW,199,4.0,-999.0,90,-99.99,,,-99.99,,2013-05-21 09:11:00,
2013-05-21 05:21:00,68.0,65.0,29.66,SSE,167,4.0,-999.0,90,-99.99,,,-99.99,,2013-05-21 09:21:00,
2013-05-21 05:33:00,68.0,65.0,29.67,SSE,161,5.0,-999.0,90,-99.99,,,-99.99,,2013-05-21 09:33:00,
2013-05-21 05:42:00,68.0,65.0,29.67,SSE,161,5.0,-999.0,90,-99.99,,,-99.99,,2013-05-21 09:42:00,
2013-05-21 05:53:00,69.0,66.0,29.67,SSW,205,6.0,-999.0,89,-99.99,,,-99.99,,2013-05-21 09:53:00,
2013-05-21 06:02:00,69.0,66.0,29.69,SSW,211,6.0,-999.0,89,-99.99,,,-99.99,,2013-05-21 10:02:00,
2013-05-21 06:12:00,69.0,66.0,29.69,SSW,211,6.0,-999.0,89,-99.99,,,-99.99,,2013-05-21 10:12:00,
2013-05-21 06:22:00,69.0,66.0,29.69,South,177,6.0,-999.0,89,-99.99,,,-99.99,,2013-05-21 10:22:00,
2013-05-21 06:32:00,69.0,66.0,29.72,SSW,209,6.0,-999.0,89,-99.99,,,-99.99,,2013-05-21 10:32:00,
2013-05-21 06:42:00,69.0,66.0,29.72,SSW,209,6.0,-999.0,89,-99.99,,,-99.99,,2013-05-21 10:42:00,
2013-05-21 06:52:00,69.0,65.0,29.73,SSW,213,9.0,-999.0,87,-99.99,,,-99.99,,2013-05-21 10:52:00,
2013-05-21 07:02:00,69.0,64.0,29.71,WSW,244,8.0,-999.0,84,-99.99,,,-99.99,,2013-05-21 11:02:00,
2013-05-21 07:12:00,69.0,64.0,29.71,WSW,244,8.0,-999.0,84,-99.99,,,-99.99,,2013-05-21 11:12:00,
2013-05-21 07:22:00,68.0,63.0,29.70,WSW,248,8.0,-999.0,85,-99.99,,,-99.99,,2013-05-21 11:22:00,
2013-05-21 07:32:00,67.0,63.0,29.65,NW,311,5.0,-999.0,87,-99.99,,,-99.99,,2013-05-21 11:32:00,
2013-05-21 07:42:00,67.0,63.0,29.65,NW,311,5.0,-999.0,87,-99.99,,,-99.99,,2013-05-21 11:42:00,
2013-05-21 07:52:00,66.0,63.0,29.65,WNW,293,4.0,-999.0,89,-99.99,,,-99.99,,2013-05-21 11:52:00,
2013-05-21 08:01:00,66.0,63.0,29.65,WSW,238,0.0,-999.0,90,-99.99,,,-99.99,,2013-05-21 12:01:00,
2013-05-21 08:11:00,66.0,63.0,29.65,WSW,238,0.0,-999.0,90,-99.99,,,-99.99,,2013-05-21 12:11:00,
2013-05-21 08:21:00,66.0,63.0,29.65,South,172,1.0,-999.0,90,-99.99,,,-99.99,,2013-05-21 12:21:00,
2013-05-21 08:32:00,66.0,63.0,29.66,South,173,3.0,-999.0,90,-99.99,,,-99.99,,2013-05-21 12:32:00,
2013-05-21 08:42:00,66.0,63.0,29.66,South,173,3.0,-999.0,90,-99.99,,,-99.99,,2013-05-21 12:42:00,
2013-05-21 08:52:00,67.0,63.0,29.66,SSE,160,4.0,-999.0,88,-99.99,,,-99.99,,2013-05-21 12:52:00,
2013-05-21 09:01:00,68.0,64.0,29.67,SE,138,5.0,-999.0,86,-99.99,,,-99.99,,2013-05-21 13:01:00,
2013-05-21 09:12:00,68.0,64.0,29.67,SE,138,5.0,-999.0,86,-99.99,,,-99.99,,2013-05-21 13:12:00,
2013-05-21 09:22:00,68.0,63.0,29.68,South,186,3.0,-999.0,85,-99.99,,,-99.99,,2013-05-21 13:22:00,
2013-05-21 09:32:00,69.0,64.0,29.69,South,178,6.0,-999.0,84,-99.99,,,-99.99,,2013-05-21 13:32:00,
2013-05-21 09:42:00,69.0,64.0,29.69,South,178,6.0,-999.0,84,-99.99,,,-99.99,,2013-05-21 13:42:00,
2013-05-21 09:52:00,70.0,64.0,29.69,SW,217,7.0,-999.0,81,-99.99,,,-99.99,,2013-05-21 13:52:00,
2013-05-21 10:01:00,71.0,64.0,29.69,WSW,246,6.0,-999.0,78,-99.99,,,-99.99,,2013-05-21 14:01:00,
2013-05-21 10:11:00,71.0,64.0,29.69,WSW,246,6.0,-999.0,78,-99.99,,,-99.99,,2013-05-21 14:11:00,
2013-05-21 10:21:00,72.0,63.0,29.69,WSW,253,9.0,-999.0,74,-99.99,,,-99.99,,2013-05-21 14:21:00,
2013-05-21 10:32:00,72.0,63.0,29.69,SSW,196,10.0,-999.0,74,-99.99,,,-99.99,,2013-05-21 14:32:00,
2013-05-21 10:42:00,72.0,63.0,29.69,SSW,196,10.0,-999.0,74,-99.99,,,-99.99,,2013-05-21 14:42:00,
2013-05-21 10:52:00,73.0,64.0,29.70,SSE,155,8.0,-999.0,74,-99.99,,,-99.99,,2013-05-21 14:52:00,
2013-05-21 11:01:00,73.0,64.0,29.70,SSW,212,8.0,-999.0,73,-99.99,,,-99.99,,2013-05-21 15:01:00,
2013-05-21 11:11:00,73.0,64.0,29.70,South,181,9.0,-999.0,73,-99.99,,,-99.99,,2013-05-21 15:11:00,
2013-05-21 11:21:00,73.0,64.0,29.70,South,181,9.0,-999.0,73,-99.99,,,-99.99,,2013-05-21 15:21:00,
2013-05-21 11:33:00,72.0,63.0,29.70,South,189,6.0,-999.0,74,-99.99,,,-99.99,,2013-05-21 15:33:00,
2013-05-21 11:42:00,72.0,63.0,29.69,South,188,6.0,-999.0,74,-99.99,,,-99.99,,2013-05-21 15:42:00,
2013-05-21 11:53:00,72.0,63.0,29.69,South,188,6.0,-999.0,74,-99.99,,,-99.99,,2013-05-21 15:53:00,
2013-05-21 12:03:00,72.0,64.0,29.69,SW,232,6.0,-999.0,75,-99.99,,,-99.99,,2013-05-21 16:03:00,
2013-05-21 12:13:00,73.0,64.0,29.69,SSW,192,7.0,-999.0,74,-99.99,,,-99.99,,2013-05-21 16:13:00,
2013-05-21 12:23:00,73.0,64.0,29.69,SSW,192,7.0,-999.0,74,-99.99,,,-99.99,,2013-05-21 16:23:00,
2013-05-21 12:32:00,73.0,64.0,29.68,SSW,200,7.0,-999.0,73,-99.99,,,-99.99,,2013-05-21 16:32:00,
2013-05-21 12:42:00,73.0,64.0,29.68,SW,215,7.0,-999.0,73,-99.99,,,-99.99,,2013-05-21 16:42:00,
2013-05-21 12:53:00,73.0,64.0,29.68,SW,215,7.0,-999.0,73,-99.99,,,-99.99,,2013-05-21 16:53:00,
2013-05-21 13:02:00,73.0,63.0,29.68,SSW,202,7.0,-999.0,72,-99.99,,,-99.99,,2013-05-21 17:02:00,
2013-05-21 13:12:00,72.0,63.0,29.67,SSW,193,6.0,-999.0,74,-99.99,,,-99.99,,2013-05-21 17:12:00,
2013-05-21 13:23:00,72.0,63.0,29.67,SSW,193,6.0,-999.0,74,-99.99,,,-99.99,,2013-05-21 17:23:00,
2013-05-21 13:32:00,72.0,63.0,29.67,SW,221,7.0,-999.0,74,-99.99,,,-99.99,,2013-05-21 17:32:00,
2013-05-21 13:43:00,72.0,64.0,29.67,SSW,206,6.0,-999.0,76,-99.99,,,-99.99,,2013-05-21 17:43:00,
2013-05-21 13:52:00,72.0,64.0,29.67,SSW,206,6.0,-999.0,76,-99.99,,,-99.99,,2013-05-21 17:52:00,
2013-05-21 14:02:00,72.0,64.0,29.67,SSE,165,6.0,-999.0,75,-99.99,,,-99.99,,2013-05-21 18:02:00,
2013-05-21 14:12:00,72.0,64.0,29.67,SSE,165,6.0,-999.0,75,-99.99,,,-99.99,,2013-05-21 18:12:00,
2013-05-21 14:22:00,74.0,64.0,29.67,West,259,9.0,-999.0,72,-99.99,,,-99.99,,2013-05-21 18:22:00,
2013-05-21 14:32:00,74.0,64.0,29.67,SSW,203,8.0,-999.0,72,-99.99,,,-99.99,,2013-05-21 18:32:00,
2013-05-21 14:42:00,73.0,64.0,29.67,South,187,7.0,-999.0,73,-99.99,,,-99.99,,2013-05-21 18:42:00,
2013-05-21 14:52:00,73.0,64.0,29.67,South,187,7.0,-999.0,73,-99.99,,,-99.99,,2013-05-21 18:52:00,
2013-05-21 15:01:00,74.0,65.0,29.66,South,180,8.0,-999.0,73,-99.99,,,-99.99,,2013-05-21 19:01:00,
2013-05-21 15:11:00,74.0,65.0,29.66,South,180,8.0,-999.0,73,-99.99,,,-99.99,,2013-05-21 19:11:00,
2013-05-21 15:21:00,74.0,65.0,29.66,South,169,7.0,-999.0,73,-99.99,,,-99.99,,2013-05-21 19:21:00,
2013-05-21 15:32:00,74.0,65.0,29.66,SSW,198,8.0,-999.0,74,-99.99,,,-99.99,,2013-05-21 19:32:00,
2013-05-21 15:42:00,74.0,65.0,29.66,SSW,198,8.0,-999.0,74,-99.99,,,-99.99,,2013-05-21 19:42:00,
2013-05-21 15:52:00,74.0,65.0,29.67,SW,223,9.0,-999.0,74,-99.99,,,-99.99,,2013-05-21 19:52:00,
2013-05-21 16:03:00,74.0,65.0,29.66,South,178,7.0,-999.0,73,-99.99,,,-99.99,,2013-05-21 20:03:00,
2013-05-21 16:11:00,74.0,65.0,29.66,South,178,7.0,-999.0,73,-99.99,,,-99.99,,2013-05-21 20:11:00,
2013-05-21 16:22:00,75.0,65.0,29.66,SW,229,8.0,-999.0,72,-99.99,,,-99.99,,2013-05-21 20:22:00,
2013-05-21 16:32:00,76.0,66.0,29.66,SSW,208,8.0,-999.0,71,-99.99,,,-99.99,,2013-05-21 20:32:00,
2013-05-21 16:42:00,76.0,66.0,29.66,SSW,208,8.0,-999.0,71,-99.99,,,-99.99,,2013-05-21 20:42:00,
2013-05-21 16:52:00,76.0,66.0,29.66,SW,223,7.0,-999.0,71,-99.99,,,-99.99,,2013-05-21 20:52:00,
2013-05-21 17:02:00,77.0,66.0,29.65,South,178,7.0,-999.0,69,-99.99,,,-99.99,,2013-05-21 21:02:00,
2013-05-21 17:11:00,77.0,66.0,29.65,South,178,7.0,-999.0,69,-99.99,,,-99.99,,2013-05-21 21:11:00,
2013-05-21 17:21:00,76.0,65.0,29.64,SSE,165,6.0,-999.0,70,-99.99,,,-99.99,,2013-05-21 21:21:00,
2013-05-21 17:33:00,76.0,66.0,29.64,South,171,5.0,-999.0,71,-99.99,,,-99.99,,2013-05-21 21:33:00,
2013-05-21 17:43:00,76.0,66.0,29.63,South,181,7.0,-999.0,72,-99.99,,,-99.99,,2013-05-21 21:43:00,
2013-05-21 17:54:00,76.0,66.0,29.63,South,181,7.0,-999.0,72,-99.99,,,-99.99,,2013-05-21 21:54:00,
2013-05-21 18:02:00,76.0,66.0,29.64,SSW,205,8.0,-999.0,71,-99.99,,,-99.99,,2013-05-21 22:02:00,
2013-05-21 18:12:00,76.0,66.0,29.64,SSW,205,8.0,-999.0,71,-99.99,,,-99.99,,2013-05-21 22:12:00,
2013-05-21 18:23:00,76.0,64.0,29.65,SSW,205,8.0,-999.0,67,-99.99,,,-99.99,,2013-05-21 22:23:00,
2013-05-21 18:33:00,76.0,62.0,29.64,SSW,196,8.0,-999.0,62,-99.99,,,-99.99,,2013-05-21 22:33:00,
2013-05-21 18:42:00,76.0,62.0,29.64,SSW,196,8.0,-999.0,62,-99.99,,,-99.99,,2013-05-21 22:42:00,
2013-05-21 18:53:00,77.0,62.0,29.64,SW,219,8.0,-999.0,60,-99.99,,,-99.99,,2013-05-21 22:53:00,
2013-05-21 19:02:00,77.0,63.0,29.64,SW,216,5.0,-999.0,61,-99.99,,,-99.99,,2013-05-21 23:02:00,
2013-05-21 19:12:00,77.0,63.0,29.64,SW,216,5.0,-999.0,61,-99.99,,,-99.99,,2013-05-21 23:12:00,
2013-05-21 19:22:00,77.0,63.0,29.64,SSW,213,6.0,-999.0,63,-99.99,,,-99.99,,2013-05-21 23:22:00,
2013-05-21 19:32:00,77.0,63.0,29.64,SSW,212,5.0,-999.0,63,-99.99,,,-99.99,,2013-05-21 23:32:00,
2013-05-21 19:42:00,77.0,64.0,29.64,SW,228,3.0,-999.0,64,-99.99,,,-99.99,,2013-05-21 23:42:00,
2013-05-21 19:52:00,77.0,64.0,29.64,SW,228,3.0,-999.0,64,-99.99,,,-99.99,,2013-05-21 23:52:00,
2013-05-21 20:01:00,76.0,64.0,29.64,SSE,168,2.0,-999.0,66,-99.99,,,-99.99,,2013-05-22 00:01:00,
2013-05-21 20:11:00,76.0,65.0,29.64,SSW,193,2.0,-999.0,68,-99.99,,,-99.99,,2013-05-22 00:11:00,
2013-05-21 20:21:00,76.0,65.0,29.64,SSW,193,2.0,-999.0,68,-99.99,,,-99.99,,2013-05-22 00:21:00,
2013-05-21 20:32:00,75.0,64.0,29.64,SSW,201,2.0,-999.0,68,-99.99,,,-99.99,,2013-05-22 00:32:00,
2013-05-21 20:41:00,75.0,64.0,29.64,SSW,201,2.0,-999.0,68,-99.99,,,-99.99,,2013-05-22 00:41:00,
2013-05-21 20:52:00,75.0,65.0,29.64,SSW,198,3.0,-999.0,70,-99.99,,,-99.99,,2013-05-22 00:52:00,
2013-05-21 21:01:00,74.0,65.0,29.64,South,177,2.0,-999.0,73,-99.99,,,-99.99,,2013-05-22 01:01:00,
2013-05-21 21:11:00,74.0,65.0,29.64,South,177,2.0,-999.0,73,-99.99,,,-99.99,,2013-05-22 01:11:00,
2013-05-21 21:21:00,74.0,65.0,29.64,South,177,2.0,-999.0,73,-99.99,,,-99.99,,2013-05-22 01:21:00,
2013-05-21 21:32:00,72.0,64.0,29.64,South,169,0.0,-999.0,77,-99.99,,,-99.99,,2013-05-22 01:32:00,
2013-05-21 21:42:00,71.0,64.0,29.64,South,169,0.0,-999.0,79,-99.99,,,-99.99,,2013-05-22 01:42:00,
2013-05-21 21:52:00,71.0,64.0,29.64,South,169,0.0,-999.0,79,-99.99,,,-99.99,,2013-05-22 01:52:00,
2013-05-21 22:02:00,70.0,64.0,29.65,South,169,0.0,-999.0,82,-99.99,,,-99.99,,2013-05-22 02:02:00,
2013-05-21 22:11:00,70.0,64.0,29.65,South,169,0.0,-999.0,82,-99.99,,,-99.99,,2013-05-22 02:11:00,
2013-05-21 22:21:00,70.0,65.0,29.65,South,169,0.0,-999.0,83,-99.99,,,-99.99,,2013-05-22 02:21:00,
2013-05-21 22:32:00,69.0,64.0,29.65,South,169,0.0,-999.0,85,-99.99,,,-99.99,,2013-05-22 02:32:00,
2013-05-21 22:42:00,68.0,64.0,29.65,South,169,0.0,-999.0,87,-99.99,,,-99.99,,2013-05-22 02:42:00,
2013-05-21 22:52:00,68.0,64.0,29.65,South,169,0.0,-999.0,87,-99.99,,,-99.99,,2013-05-22 02:52:00,
2013-05-21 23:01:00,67.0,63.0,29.65,South,169,0.0,-999.0,88,-99.99,,,-99.99,,2013-05-22 03:01:00,
2013-05-21 23:11:00,67.0,63.0,29.65,South,169,0.0,-999.0,88,-99.99,,,-99.99,,2013-05-22 03:11:00,
2013-05-21 23:21:00,66.0,63.0,29.65,South,169,0.0,-999.0,89,-99.99,,,-99.99,,2013-05-22 03:21:00,
2013-05-21 23:33:00,65.0,62.0,29.65,South,169,0.0,-999.0,91,-99.99,,,-99.99,,2013-05-22 03:33:00,
2013-05-21 23:43:00,65.0,63.0,29.65,South,169,0.0,-999.0,92,-99.99,,,-99.99,,2013-05-22 03:43:00,
2013-05-21 23:53:00,65.0,63.0,29.65,South,169,0.0,-999.0,92,-99.99,,,-99.99,,2013-05-22 03:53:00,